Regional Weather Roundup
Issued by NWS Sterling, VA

Home | Current Version | Previous Version | Graphics & Text | Print | Product List | Glossary On
Versions: 1 2 3 4 5 6 7 8 9 10 11 12 13 14 15 16 17 18 19 20 21 22 23 24 25 26 27 28 29 30 31 32 33 34 35 36 37 38 39 40 41 42 43 44 45 46 47 48 49 50
000
ASUS41 KLWX 281510
RWRLWX

REGIONAL WEATHER ROUNDUP
NATIONAL WEATHER SERVICE BALTIMORE MD/WASHINGTON DC
1100 AM EDT THU APR 28 2016

Note: "FAIR" indicates few or no clouds below 12,000 feet
with no significant weather and/or obstructions to visibility.
 TC=TEMPERATURE CELSIUS

 * =Non NWS site. Station does not report precipitation (e.g. rain,
    snow, etc.), thunder, or fog.

DCZ001-MDZ009-015-VAZ040>042-051-053>054-281600-
WASHINGTON METRO

CITY           SKY/WX    TMP DP  RH WIND       PRES   REMARKS
WASHINGTON NAT RAIN      54  50  86 CALM      30.04R FOG
DULLES         LGT RAIN  52  50  93 E8        29.99R FOG
ANDREWS AFB    LGT RAIN  52  50  92 E6        29.99R FOG
FT BELVOIR     RAIN      54  50  87 VRB1      30.02R FOG
QUANTICO       LGT RAIN  55  52  89 E5        30.02R FOG
COLLEGE PARK*  CLOUDY    50  46  87 CALM      30.01R
LEESBURG*      LGT RAIN  54  54 100 E8        30.00F
GAITHERSBURG*  CLOUDY    52  46  82 E6        30.05R

$$

MDZ006>007-011-014-281600-
BALTIMORE METRO

CITY           SKY/WX    TMP DP  RH WIND       PRES   REMARKS
BWI AIRPORT    LGT RAIN  53  44  71 E13       30.00R
MD SCIENCE CTR   N/A     55  41  59 MISG      30.01R
MARTIN STATE   LGT RAIN  55  45  67 E10       30.02S
ANNAPOLIS      LGT RAIN  53  49  86 NE5       30.00R FOG
FORT MEADE*    CLOUDY    50  45  81 E6        30.03R

$$

MDZ012-015-019>023-281600-
MARYLAND EASTERN SHORE

CITY           SKY/WX    TMP DP  RH WIND       PRES   REMARKS
OCEAN CITY     CLOUDY    52  49  89 E9        30.02R
SALISBURY      LGT RAIN  51  50  96 E6        30.02R FOG
CAMBRIDGE*     CLOUDY    50  50 100 E3        30.00R
EASTON*        RAIN     N/A N/A N/A E5        30.04R

$$

MDZ017>025-281600-
SOUTHERN MARYLAND

CITY           SKY/WX    TMP DP  RH WIND       PRES   REMARKS
PATUXENT RIVER LGT RAIN  53  50  89 E12       30.00R FOG
ST INIGOES     CLOUDY    54  51  90 E8        29.99S
LEONARDTOWN*   CLOUDY    50  48  93 E3        30.01S

$$

MDZ003>005-281600-
NORTH CENTRAL MARYLAND

CITY           SKY/WX    TMP DP  RH WIND       PRES   REMARKS
FREDERICK*     HVY RAIN  52  50  93 NE7       30.05R
HAGERSTOWN APT RAIN      52  48  86 E9        29.99R FOG
WESTMINSTER*   RAIN      48  45  87 NE5       30.01R

$$

MDZ501>502-281600-
WESTERN MARYLAND

CITY           SKY/WX    TMP DP  RH WIND       PRES   REMARKS
OAKLAND*       FOG       45  45 100 SE13G18   29.93S VSB<1/4
CUMBERLAND*    CLOUDY    54  52  94 N5        30.01R

$$

VAZ025>031-281600-
SHENANDOAH VALLEY

CITY           SKY/WX    TMP DP  RH WIND       PRES   REMARKS
WINCHESTER*    CLOUDY    54  52  94 E9        29.97S FOG
FRONT ROYAL*   CLOUDY    54  52  94 E8G16     29.94S
LURAY*         CLOUDY    54  54 100 N7        29.94S
NEW MARKET*    CLOUDY    54  53  96 N7        29.94R
STAUNTON*      CLOUDY    60  60 100 CALM      29.95R FOG
WAYNESBORO*    CLOUDY    58  56  91 MISG      29.94S

$$

WVZ021-048>050-054>055-281600-
EASTERN WEST VIRGINIA PANHANDLE

CITY           SKY/WX    TMP DP  RH WIND       PRES   REMARKS
MARTINSBURG    LGT RAIN  51  50  96 E5        29.98S FOG
PETERSBURG*    CLOUDY    55  53  92 N5        29.96S

$$

VAZ036>039-050-281600-
CENTRAL FOOTHILLS

CITY           SKY/WX    TMP DP  RH WIND       PRES   REMARKS
CHARLOTTESVILL CLOUDY    57  54  89 E6        29.96R FOG
CULPEPER*      DRIZZLE   55  55  98 E6        29.99F
ORANGE*        DRIZZLE   55  55 100 NE3       29.99S
GORDONSVILLE*  CLOUDY    55  55  99 NE7       29.97R FOG
WARRENTON*     DRIZZLE   55  50  84 E9        29.98F

$$

VAZ055>057-281600-
NORTH AND CENTRAL PIEDMONT

CITY           SKY/WX    TMP DP  RH WIND       PRES   REMARKS
FREDERICKSBRG* RAIN      55  55 100 NE3       29.99R
STAFFORD*      DRIZZLE   54  52  93 NE5       30.04R

$$

NCZ024-NYZ072-PAZ021-071-VAZ022-071-281600-
OTHER REGIONAL OBSERVATIONS

CITY           SKY/WX    TMP DP  RH WIND       PRES   REMARKS
NEW YORK CITY  CLOUDY    54  25  32 VRB7      30.07F
PHILADELPHIA   CLOUDY    55  31  39 NE9       30.05R
PITTSBURGH     LGT RAIN  50  46  86 E9        29.88S FOG
ROANOKE        CLOUDY    64  60  87 SE7       29.94F
RICHMOND       LGT RAIN  57  56  96 E10       29.95F FOG
RALEIGH        CLOUDY    73  62  68 VRB6      29.93S

$$

ANZ530>537-281600-
MARINE OBSERVATIONS

STATION/POSITION TIME  TEMP    WIND        PRES
                       AIR SEA DIR/SP/G
                 (UTC) (F)     (DEG/KT/KT) (MB)
THOMAS PT LIGHT  1500   53 58   80/ 10/ 11 1017.2R
BALT KEY BRIDGE  1400   55      60/ 13/ 17 1015.5F
COVE POINT       1400   51     110/  7/ 11 1016.3R
LEWISETTA        1400   54 61  100/ 13/ 14 1015.1R
SOLOMONS ISLAND  1400   52 62   80/  8/ 11   N/A

$$




USA.gov is the U.S. government's official web portal to all federal, state and local government web resources and services.